Location: Lafig�re
(44.4503°N, 4.0357°E)
Time: 21:28:31
(UTC+00:00)

Cosmos 1092 Rocket - Pass Details

Date: 02 February 2021
Orbit: 954 x 995 km, 83.0° (Epoch: 07 March)

Event Time Altitude Azimuth Distance (km) Brightness Sun altitude
Rises 03:30:25 0° 358° (N) 3,650 7.1 -37.7°
Reaches altitude 10° 03:33:08 10° 7° (N) 2,704 6.5 -37.2°
Maximum altitude 03:38:49 37° 74° (ENE) 1,456 5.2 -36.2°
Drops below altitude 10° 03:44:31 10° 140° (SE) 2,711 6.6 -35.2°
Sets 03:47:13 0° 149° (SSE) 3,660 7.2 -34.8°
